STARLINK-1048 (44753 NORAD) Tracking and Keplerian Element Data

This shows tracking and keplerian element data for the satellite.

Feedback or suggestion? Click here.




ElementValue
Catalog44753
NameSTARLINK-1048
Epoch Orbit1145
Epoch Day23.25001157
Epoch Year2020
RAAN169.3506
Inclination53.0057
Eccentricity0.000274
Argument of Perigee34.3821
Mean Anonmoly244.29
Mean Motion15.73063501
Decay Rate0.00904687
L11 44753U 19074AS 20023.25001157 .00904687 00000-0 59140-2 0 9997
L22 44753 53.0057 169.3506 0002740 34.3821 244.2900 15.73063501 11452

Live tracking and technical data element details for STARLINK-1048 (NORAD 44753). STARLINK-1048 can be tracked NOW for your location showing map with azimuth and elevation plus other details from your city location.

Track the satellite on the map from your city or location and see movement details for azimuth, elevation, latitude, longitude, range, height, and movement on the map or in text.







IsCatalogInMostPopularTable: catalog: 44753, numindb: 9
Update: records affected: 1



GetName: 44753 STARLINK-1048

Hit Count: updated at: Fri, 24 Jan 2020 13:44:09 GMT